User: anonymous   Login
Location: Plum
(40.5000°N, 79.7500°W)
Time: 01:58:54
(UTC-05:00)
Language:

Cosmos 1825 - Orbit

View from above orbital plane
View from above orbital plane
View from above satellite
View from above satellite

Ground track
Ground track

The orbit data is extracted from the following two-line orbital elements,

1 17566U 87024A   15062.92897265  .00006575  00000-0  35119-3 0  9993
2 17566 082.5057 037.5006 0002709 215.6595 144.4457 15.14948642527036
Epoch (UTC): 03 March 2015 22:17:43
Eccentricity: 0.0002709
inclination: 82.5057°
perigee height: 519 km
apogee height: 523 km
right ascension of ascending node: 37.5006°
argument of perigee: 215.6595°
revolutions per day: 15.14948642
mean anomaly at epoch: 144.4457°
orbit number at epoch: 52703

The dashed part of the orbit path shows where the satellite is in the earth's shadow,  

DLR